| time (UTC) | temp C | wind direction | speed KPH | gust KPH | rain 1hr cm | rain 24hr cm | rain mn cm | humidity % | barometer mb |
| 20260504235025 | 15 | 9 | 19.3 | 29.0 | 0.00 | 0.00 | 0.00 | 43 | 1009.3 |
| 20260504234545 | 15 | 22 | 19.3 | 30.6 | 0.00 | 0.00 | 0.00 | 43 | 1009.2 |
| 20260504234023 | 15 | 14 | 22.5 | 30.6 | 0.00 | 0.00 | 0.00 | 43 | 1009.2 |
| 20260504233526 | 15 | 27 | 16.1 | 29.0 | 0.00 | 0.00 | 0.00 | 43 | 1009.3 |
| 20260504233044 | 15 | 44 | 17.7 | 30.6 | 0.00 | 0.00 | 0.00 | 43 | 1009.1 |
| 20260504232526 | 16 | 25 | 17.7 | 30.6 | 0.00 | 0.00 | 0.00 | 43 | 1008.9 |
| 20260504232023 | 16 | 18 | 19.3 | 27.4 | 0.00 | 0.00 | 0.00 | 43 | 1008.9 |
| 20260504231608 | 16 | 355 | 17.7 | 29.0 | 0.00 | 0.00 | 0.00 | 43 | 1008.8 |
| 20260504231023 | 16 | 25 | 19.3 | 30.6 | 0.00 | 0.00 | 0.00 | 42 | 1008.8 |
| 20260504230529 | 16 | 46 | 19.3 | 30.6 | 0.00 | 0.00 | 0.00 | 42 | 1008.7 |
| 20260504230041 | 16 | 36 | 17.7 | 30.6 | 0.00 | 0.00 | 0.00 | 42 | 1008.6 |
| 20260504225525 | 16 | 13 | 17.7 | 32.2 | 0.00 | 0.00 | 0.00 | 42 | 1008.5 |
| 20260504225022 | 17 | 22 | 19.3 | 32.2 | 0.00 | 0.00 | 0.00 | 41 | 1008.4 |
| 20260504224542 | 17 | 24 | 20.9 | 32.2 | 0.00 | 0.00 | 0.00 | 40 | 1008.4 |
| 20260504224025 | 18 | 22 | 20.9 | 30.6 | 0.00 | 0.00 | 0.00 | 40 | 1008.2 |
| 20260504223523 | 18 | 22 | 19.3 | 32.2 | 0.00 | 0.00 | 0.00 | 39 | 1008.2 |
| 20260504223046 | 17 | 17 | 19.3 | 35.4 | 0.00 | 0.00 | 0.00 | 40 | 1008.3 |
| 20260504222524 | 17 | 17 | 14.5 | 35.4 | 0.00 | 0.00 | 0.00 | 40 | 1008.3 |
| 20260504222028 | 17 | 360 | 22.5 | 35.4 | 0.00 | 0.00 | 0.00 | 40 | 1008.3 |
| 20260504221607 | 17 | 33 | 19.3 | 32.2 | 0.00 | 0.00 | 0.00 | 39 | 1008.4 |
| 20260504221024 | 18 | 46 | 19.3 | 41.8 | 0.00 | 0.00 | 0.00 | 40 | 1008.4 |
| 20260504220523 | 18 | 9 | 24.1 | 41.8 | 0.00 | 0.00 | 0.00 | 39 | 1008.4 |
| 20260504220045 | 18 | 11 | 16.1 | 35.4 | 0.00 | 0.00 | 0.00 | 40 | 1008.3 |
| 20260504215527 | 18 | 55 | 19.3 | 35.4 | 0.00 | 0.00 | 0.00 | 39 | 1008.5 |
| 20260504215024 | 18 | 65 | 24.1 | 35.4 | 0.00 | 0.00 | 0.00 | 38 | 1008.4 |
| 20260504214541 | 18 | 28 | 19.3 | 30.6 | 0.00 | 0.00 | 0.00 | 38 | 1008.3 |
| 20260504214024 | 18 | 44 | 16.1 | 38.6 | 0.00 | 0.00 | 0.00 | 38 | 1008.3 |
| 20260504213524 | 18 | 22 | 22.5 | 38.6 | 0.00 | 0.00 | 0.00 | 38 | 1008.3 |
| 20260504213043 | 18 | 28 | 24.1 | 38.6 | 0.00 | 0.00 | 0.00 | 38 | 1008.3 |
| 20260504212525 | 18 | 27 | 22.5 | 33.8 | 0.00 | 0.00 | 0.00 | 38 | 1008.3 |
| 20260504212024 | 18 | 350 | 19.3 | 37.0 | 0.00 | 0.00 | 0.00 | 39 | 1008.3 |
| 20260504211538 | 17 | 20 | 19.3 | 38.6 | 0.00 | 0.00 | 0.00 | 39 | 1008.3 |
| 20260504211024 | 18 | 44 | 24.1 | 38.6 | 0.00 | 0.00 | 0.00 | 39 | 1008.3 |
| 20260504210525 | 18 | 32 | 24.1 | 37.0 | 0.00 | 0.00 | 0.00 | 39 | 1008.3 |
| 20260504210049 | 18 | 22 | 17.7 | 33.8 | 0.00 | 0.00 | 0.00 | 39 | 1008.2 |
| 20260504205524 | 18 | 22 | 20.9 | 30.6 | 0.00 | 0.00 | 0.00 | 39 | 1008.3 |
| 20260504205029 | 18 | 43 | 19.3 | 30.6 | 0.00 | 0.00 | 0.00 | 38 | 1008.5 |
| 20260504204542 | 18 | 12 | 19.3 | 30.6 | 0.00 | 0.00 | 0.00 | 38 | 1008.3 |
| 20260504204024 | 18 | 32 | 17.7 | 32.2 | 0.00 | 0.00 | 0.00 | 37 | 1008.6 |
| 20260504203524 | 18 | 27 | 19.3 | 32.2 | 0.00 | 0.00 | 0.00 | 38 | 1008.4 |
| 20260504203041 | 18 | 19 | 22.5 | 30.6 | 0.00 | 0.00 | 0.00 | 38 | 1008.3 |
| 20260504202524 | 18 | 11 | 20.9 | 33.8 | 0.00 | 0.00 | 0.00 | 38 | 1008.3 |
| 20260504202024 | 18 | 32 | 20.9 | 33.8 | 0.00 | 0.00 | 0.00 | 37 | 1008.1 |
| 20260504201543 | 18 | 44 | 19.3 | 33.8 | 0.00 | 0.00 | 0.00 | 38 | 1008.2 |
| 20260504201023 | 18 | 360 | 12.9 | 30.6 | 0.00 | 0.00 | 0.00 | 37 | 1008.3 |
| 20260504200524 | 19 | 31 | 16.1 | 30.6 | 0.00 | 0.00 | 0.00 | 37 | 1008.7 |
| 20260504200036 | 18 | 9 | 20.9 | 33.8 | 0.00 | 0.00 | 0.00 | 37 | 1008.6 |
| 20260504195522 | 18 | 28 | 19.3 | 33.8 | 0.00 | 0.00 | 0.00 | 37 | 1008.6 |
| 20260504195025 | 18 | 17 | 20.9 | 33.8 | 0.00 | 0.00 | 0.00 | 37 | 1008.4 |
| 20260504194552 | 18 | 21 | 22.5 | 35.4 | 0.00 | 0.00 | 0.00 | 37 | 1008.3 |
| 20260504194025 | 18 | 23 | 19.3 | 35.4 | 0.00 | 0.00 | 0.00 | 37 | 1008.5 |
| 20260504193525 | 19 | 5 | 22.5 | 35.4 | 0.00 | 0.00 | 0.00 | 36 | 1008.3 |
| 20260504193048 | 19 | 352 | 20.9 | 35.4 | 0.00 | 0.00 | 0.00 | 37 | 1008.3 |
| 20260504192524 | 18 | 15 | 20.9 | 35.4 | 0.00 | 0.00 | 0.00 | 37 | 1008.4 |
| 20260504192028 | 18 | 9 | 20.9 | 37.0 | 0.00 | 0.00 | 0.00 | 37 | 1008.3 |
| 20260504191607 | 18 | 44 | 22.5 | 37.0 | 0.00 | 0.00 | 0.00 | 37 | 1008.3 |
| 20260504191024 | 19 | 38 | 24.1 | 38.6 | 0.00 | 0.00 | 0.00 | 38 | 1008.2 |
| 20260504190524 | 18 | 32 | 25.7 | 38.6 | 0.00 | 0.00 | 0.00 | 38 | 1008.2 |
| 20260504190042 | 18 | 38 | 24.1 | 43.5 | 0.00 | 0.00 | 0.00 | 38 | 1008.3 |
| 20260504185523 | 19 | 15 | 29.0 | 43.5 | 0.00 | 0.00 | 0.00 | 37 | 1008.2 |
| 20260504185024 | 19 | 9 | 25.7 | 43.5 | 0.00 | 0.00 | 0.00 | 37 | 1008.2 |
| 20260504184550 | 20 | 9 | 24.1 | 35.4 | 0.00 | 0.00 | 0.00 | 37 | 1008.2 |
| 20260504184024 | 19 | 13 | 19.3 | 35.4 | 0.00 | 0.00 | 0.00 | 38 | 1008.3 |
| 20260504183525 | 18 | 22 | 25.7 | 37.0 | 0.00 | 0.00 | 0.00 | 38 | 1008.2 |
| 20260504183038 | 19 | 352 | 19.3 | 37.0 | 0.00 | 0.00 | 0.00 | 38 | 1008.2 |
| 20260504182527 | 18 | 35 | 24.1 | 37.0 | 0.00 | 0.00 | 0.00 | 38 | 1008.2 |
| 20260504182024 | 18 | 35 | 22.5 | 35.4 | 0.00 | 0.00 | 0.00 | 38 | 1008.0 |
| 20260504181541 | 18 | 30 | 22.5 | 37.0 | 0.00 | 0.00 | 0.00 | 38 | 1008.1 |
| 20260504181026 | 18 | 63 | 20.9 | 37.0 | 0.00 | 0.00 | 0.00 | 38 | 1007.9 |
| 20260504180524 | 19 | 28 | 24.1 | 41.8 | 0.00 | 0.00 | 0.00 | 37 | 1007.9 |
| 20260504180041 | 19 | 22 | 24.1 | 41.8 | 0.00 | 0.00 | 0.00 | 39 | 1007.9 |
| 20260504175523 | 19 | 30 | 27.4 | 37.0 | 0.00 | 0.00 | 0.00 | 39 | 1007.9 |
| 20260504175024 | 18 | 17 | 22.5 | 35.4 | 0.00 | 0.00 | 0.00 | 40 | 1007.8 |
| 20260504174541 | 18 | 5 | 25.7 | 35.4 | 0.00 | 0.00 | 0.00 | 40 | 1007.9 |
| 20260504174024 | 19 | 24 | 22.5 | 41.8 | 0.00 | 0.00 | 0.00 | 40 | 1007.9 |
| 20260504173523 | 19 | 36 | 27.4 | 41.8 | 0.00 | 0.00 | 0.00 | 40 | 1007.9 |
| 20260504173039 | 20 | 44 | 20.9 | 37.0 | 0.00 | 0.00 | 0.00 | 40 | 1007.7 |
| 20260504172523 | 20 | 15 | 27.4 | 38.6 | 0.00 | 0.00 | 0.00 | 40 | 1007.7 |
| 20260504172024 | 20 | 29 | 22.5 | 38.6 | 0.00 | 0.00 | 0.00 | 40 | 1007.5 |
| 20260504171540 | 20 | 17 | 27.4 | 40.2 | 0.00 | 0.00 | 0.00 | 39 | 1007.6 |
| 20260504171028 | 20 | 9 | 25.7 | 40.2 | 0.00 | 0.00 | 0.00 | 39 | 1007.5 |
| 20260504170527 | 20 | 43 | 24.1 | 40.2 | 0.00 | 0.00 | 0.00 | 39 | 1007.3 |
| 20260504151022 | 20 | 260 | 8.0 | 14.5 | 0.00 | 0.00 | 0.00 | 37 | 1007.2 |
| 20260504150526 | 19 | 285 | 9.7 | 16.1 | 0.00 | 0.00 | 0.00 | 37 | 1007.2 |
| 20260504141027 | 15 | 302 | 8.0 | 14.5 | 0.00 | 0.00 | 0.00 | 47 | 1007.5 |
| 20260504140524 | 15 | 281 | 8.0 | 16.1 | 0.00 | 0.00 | 0.00 | 48 | 1007.4 |
| 20260504130523 | 9 | 252 | 4.8 | 9.7 | 0.00 | 0.00 | 0.00 | 64 | 1007.5 |
| 20260504110527 | 4 | 0 | 0.0 | 1.6 | 0.00 | 0.00 | 0.00 | 70 | 1007.1 |
| 20260504100525 | 3 | 0 | 3.2 | 12.9 | 0.00 | 0.00 | 0.00 | 70 | 1007.6 |
| 20260504081545 | 5 | 233 | 4.8 | 8.0 | 0.00 | 0.00 | 0.00 | 68 | 1008.0 |
| 20260504081028 | 5 | 233 | 3.2 | 8.0 | 0.00 | 0.00 | 0.00 | 68 | 1008.1 |
| 20260504080525 | 5 | 235 | 4.8 | 9.7 | 0.00 | 0.00 | 0.00 | 67 | 1008.1 |
| 20260504050525 | 7 | 235 | 3.2 | 8.0 | 0.00 | 0.00 | 0.00 | 65 | 1009.9 |
| 20260504045527 | 8 | 171 | 6.4 | 9.7 | 0.00 | 0.00 | 0.00 | 62 | 1010.0 |
| 20260504045026 | 8 | 171 | 6.4 | 8.0 | 0.00 | 0.00 | 0.00 | 62 | 1010.0 |
| 20260504044538 | 8 | 171 | 4.8 | 9.7 | 0.00 | 0.00 | 0.00 | 62 | 1010.1 |
| 20260504044025 | 8 | 171 | 6.4 | 9.7 | 0.00 | 0.00 | 0.00 | 61 | 1010.0 |
| 20260504043531 | 8 | 153 | 6.4 | 9.7 | 0.00 | 0.00 | 0.00 | 62 | 1010.0 |
| 20260504043045 | 8 | 151 | 6.4 | 9.7 | 0.00 | 0.00 | 0.00 | 61 | 1010.1 |
| 20260504042525 | 9 | 155 | 4.8 | 11.3 | 0.00 | 0.00 | 0.00 | 59 | 1010.1 |
| 20260504042025 | 9 | 155 | 4.8 | 11.3 | 0.00 | 0.00 | 0.00 | 58 | 1010.2 |
| 20260504041543 | 10 | 148 | 1.6 | 11.3 | 0.00 | 0.00 | 0.00 | 57 | 1010.2 |
| 20260504041024 | 10 | 0 | 0.0 | 0.0 | 0.00 | 0.00 | 0.00 | 56 | 1010.3 |
| 20260504040528 | 11 | 0 | 0.0 | 0.0 | 0.00 | 0.00 | 0.00 | 55 | 1010.3 |
| 20260504040043 | 11 | 0 | 0.0 | 0.0 | 0.00 | 0.00 | 0.00 | 55 | 1010.3 |
| 20260504035528 | 11 | 0 | 0.0 | 0.0 | 0.00 | 0.00 | 0.00 | 54 | 1010.4 |
| 20260504035026 | 12 | 0 | 0.0 | 4.8 | 0.00 | 0.00 | 0.00 | 53 | 1010.4 |
| 20260504034552 | 12 | 0 | 0.0 | 9.7 | 0.00 | 0.00 | 0.00 | 52 | 1010.3 |
| 20260504034026 | 12 | 103 | 4.8 | 9.7 | 0.00 | 0.00 | 0.00 | 52 | 1010.2 |
| 20260504033526 | 13 | 106 | 6.4 | 9.7 | 0.00 | 0.00 | 0.00 | 51 | 1010.2 |
| 20260504033050 | 13 | 96 | 3.2 | 11.3 | 0.00 | 0.00 | 0.00 | 51 | 1010.4 |
| 20260504032525 | 13 | 88 | 4.8 | 11.3 | 0.00 | 0.00 | 0.00 | 51 | 1010.5 |
| 20260504032025 | 13 | 68 | 4.8 | 8.0 | 0.00 | 0.00 | 0.00 | 51 | 1010.6 |
| 20260504031549 | 13 | 55 | 0.0 | 8.0 | 0.00 | 0.00 | 0.00 | 50 | 1010.6 |
| 20260504031024 | 13 | 54 | 3.2 | 8.0 | 0.00 | 0.00 | 0.00 | 50 | 1010.7 |
| 20260504030526 | 14 | 58 | 3.2 | 6.4 | 0.00 | 0.00 | 0.00 | 49 | 1010.5 |
| 20260504030038 | 14 | 31 | 1.6 | 6.4 | 0.00 | 0.00 | 0.00 | 49 | 1010.4 |
| 20260504025524 | 14 | 53 | 3.2 | 6.4 | 0.00 | 0.00 | 0.00 | 49 | 1010.4 |
| 20260504025025 | 15 | 67 | 3.2 | 12.9 | 0.00 | 0.00 | 0.00 | 49 | 1010.4 |
| 20260504024543 | 15 | 49 | 4.8 | 14.5 | 0.00 | 0.00 | 0.00 | 48 | 1010.4 |
| 20260504024024 | 15 | 36 | 6.4 | 14.5 | 0.00 | 0.00 | 0.00 | 48 | 1010.4 |
| 20260504023524 | 15 | 60 | 6.4 | 25.7 | 0.00 | 0.00 | 0.00 | 48 | 1010.4 |
| 20260504023043 | 15 | 53 | 11.3 | 25.7 | 0.00 | 0.00 | 0.00 | 48 | 1010.4 |
| 20260504022528 | 15 | 5 | 16.1 | 25.7 | 0.00 | 0.00 | 0.00 | 47 | 1010.4 |
| 20260504022024 | 15 | 13 | 16.1 | 27.4 | 0.00 | 0.00 | 0.00 | 48 | 1010.4 |
| 20260504021543 | 15 | 360 | 16.1 | 27.4 | 0.00 | 0.00 | 0.00 | 48 | 1010.3 |
| 20260504021026 | 15 | 36 | 19.3 | 30.6 | 0.00 | 0.00 | 0.00 | 47 | 1010.3 |
| 20260504020525 | 16 | 12 | 22.5 | 30.6 | 0.00 | 0.00 | 0.00 | 46 | 1010.4 |
| 20260504020039 | 16 | 20 | 20.9 | 37.0 | 0.00 | 0.00 | 0.00 | 46 | 1010.7 |
| 20260504015525 | 16 | 348 | 22.5 | 37.0 | 0.00 | 0.00 | 0.00 | 45 | 1011.0 |
| 20260504015028 | 16 | 336 | 27.4 | 37.0 | 0.00 | 0.00 | 0.00 | 45 | 1010.9 |
| 20260504014540 | 17 | 346 | 27.4 | 35.4 | 0.00 | 0.00 | 0.00 | 43 | 1010.4 |
| 20260504014028 | 18 | 348 | 25.7 | 33.8 | 0.00 | 0.00 | 0.00 | 40 | 1010.1 |
| 20260504013524 | 20 | 9 | 6.4 | 19.3 | 0.00 | 0.00 | 0.00 | 33 | 1009.8 |
| 20260504013045 | 20 | 360 | 11.3 | 19.3 | 0.00 | 0.00 | 0.00 | 32 | 1009.7 |
| 20260504012526 | 20 | 360 | 8.0 | 24.1 | 0.00 | 0.00 | 0.00 | 32 | 1009.7 |
| 20260504012025 | 20 | 329 | 9.7 | 24.1 | 0.00 | 0.00 | 0.00 | 32 | 1009.7 |
| 20260504011545 | 20 | 31 | 12.9 | 20.9 | 0.00 | 0.00 | 0.00 | 32 | 1009.6 |
| 20260504011030 | 20 | 298 | 4.8 | 14.5 | 0.00 | 0.00 | 0.00 | 32 | 1009.7 |
| 20260504010523 | 20 | 296 | 6.4 | 14.5 | 0.00 | 0.00 | 0.00 | 32 | 1009.7 |
| 20260504010044 | 20 | 315 | 1.6 | 4.8 | 0.00 | 0.00 | 0.00 | 32 | 1009.7 |
| 20260504005525 | 20 | 338 | 1.6 | 11.3 | 0.00 | 0.00 | 0.00 | 32 | 1009.6 |
| 20260504005024 | 20 | 0 | 1.6 | 11.3 | 0.00 | 0.00 | 0.00 | 32 | 1009.6 |
| 20260504004542 | 20 | 296 | 1.6 | 12.9 | 0.00 | 0.00 | 0.00 | 31 | 1009.5 |
| 20260504004023 | 21 | 340 | 4.8 | 12.9 | 0.00 | 0.00 | 0.00 | 31 | 1009.5 |
| 20260504003525 | 21 | 321 | 4.8 | 12.9 | 0.00 | 0.00 | 0.00 | 31 | 1009.5 |
| 20260504003043 | 21 | 277 | 4.8 | 14.5 | 0.00 | 0.00 | 0.00 | 30 | 1009.5 |
| 20260504002529 | 21 | 252 | 8.0 | 14.5 | 0.00 | 0.00 | 0.00 | 30 | 1009.5 |
| 20260504002025 | 21 | 209 | 8.0 | 12.9 | 0.00 | 0.00 | 0.00 | 30 | 1009.7 |
| 20260504001539 | 21 | 221 | 6.4 | 14.5 | 0.00 | 0.00 | 0.00 | 30 | 1009.5 |
| 20260504001028 | 21 | 147 | 4.8 | 14.5 | 0.00 | 0.00 | 0.00 | 30 | 1009.6 |
| 20260504000524 | 21 | 197 | 6.4 | 17.7 | 0.00 | 0.00 | 0.00 | 30 | 1009.6 |
| 20260504000051 | 22 | 227 | 4.8 | 19.3 | 0.00 | 0.00 | 0.00 | 29 | 1009.7 |
| 20260503235525 | 22 | 190 | 12.9 | 19.3 | 0.00 | 0.00 | 0.00 | 29 | 1009.6 |